[[{"header":{"parameterUnit":"m.s-1","parameterCategory":1,"la1":30.2991,"la2":30.254,"lo1":-89.0895,"lo2":-89.0444,"dy":0.0017,"dx":0.0017,"nx":28,"ny":28,"refTime":"2024-11-23T09:00:00:Z","depth":0,"parameterNumber":2,"parameterNumberName":"U-component_of_WINDS"},"data":[0,0,0,0,0,0,0,0,0,0,0,0,0,0,0,0,0,0,0,0,0,0,0,0,0,0,0,0,0,0,0,0,0,0,0,0,0,0,0,0,0,0,0,0,0,0,0,0,0,0,0,0,0,0,0,0,0,0,-0.9615,-0.9615,0,-0.9598,-0.9598,-0.9598,-0.9534,-0.9533,-0.9531,-0.953,-0.9514,-0.9515,-0.9516,0,0,0,0,0,0,0,0,0,0,0,0,0,-0.9594,-0.9595,-0.9615,-0.9615,-0.9615,-0.9598,-0.9598,-0.9598,-0.9534,-0.9533,-0.9531,-0.9529,-0.9514,-0.9515,-0.9516,0,0,0,0,0,0,0,0,0,0,0,0,0,-0.9593,-0.9595,-0.9615,-0.9581,-0.9578,-0.9598,-0.9598,-0.9598,-0.9535,-0.9533,-0.953,-0.9528,-0.9514,-0.9515,-0.9516,-0.9569,0,0,-0.9521,-0.9521,0,0,0,0,0,0,0,0,-0.9593,-0.9594,-0.9586,-0.9583,-0.958,-0.9566,-0.9585,-0.9588,-0.9535,-0.9551,-0.953,-0.9527,-0.9533,-0.9533,-0.9535,-0.9568,-0.9567,-0.9521,-0.9522,-0.9522,-0.9523,0,0,0,0,0,0,0,-0.9593,-0.9594,-0.9608,-0.9586,-0.9582,-0.9567,-0.9565,-0.9585,-0.9555,-0.955,-0.9545,-0.9544,-0.9531,-0.9533,-0.9534,-0.9567,-0.9521,-0.9522,-0.9523,-0.9523,-0.9644,-0.9646,0,0,0,0,0,0,-0.9598,-0.9595,-0.9609,-0.9608,-0.9581,-0.9569,-0.9566,-0.9573,-0.9554,-0.9549,-0.9546,-0.9541,-0.9532,-0.9532,-0.9533,-0.9594,-0.9522,-0.9524,-0.9524,-0.9642,-0.9644,-0.9647,0,0,0,0,0,0,-0.9598,-0.96,-0.961,-0.96,-0.96,-0.9572,-0.958,-0.9573,-0.9576,-0.9551,-0.9546,-0.9553,-0.953,-0.9531,-0.956,-0.9593,-0.9524,-0.9525,-0.9639,-0.9642,-0.9646,-0.9716,0,0,0,0,0,0,-0.9597,-0.96,-0.9619,-0.9601,-0.9601,-0.9637,-0.9581,-0.9575,-0.9578,-0.9572,-0.9557,-0.9553,-0.9529,-0.9559,-0.9562,-0.9593,-0.9527,-0.9636,-0.964,-0.9645,-0.9711,-0.9722,-0.9731,0,0,0,0,0,-0.9597,-0.964,-0.9621,-0.9623,-0.9624,-0.9639,-0.9639,-0.961,-0.9581,-0.96,-0.9585,-0.9553,-0.9588,-0.9562,-0.9565,-0.9598,-0.9634,-0.9639,-0.9644,-0.9707,-0.972,-0.9731,0,0,0,0,0,0,-0.9663,-0.9637,-0.9615,-0.9653,-0.9649,-0.9628,-0.9652,-0.9625,-0.9629,-0.9623,-0.9587,-0.9584,-0.9619,-0.9611,-0.9583,-0.9648,-0.9606,-0.9612,-0.9652,-0.9664,-0.9674,-0.9676,-0.9528,0,0,0,0,0,-0.9682,-0.9696,-0.9672,-0.9708,-0.9707,-0.968,-0.9685,-0.9664,-0.9658,-0.9656,-0.9642,-0.9638,-0.9648,-0.9656,-0.9664,-0.9709,-0.9706,-0.9733,-0.9743,-0.9752,-0.9758,-0.9782,-0.9794,-0.9664,-0.9664,-0.9664,0,0,-0.9722,-0.9709,-0.972,-0.9722,-0.9715,-0.9731,-0.9679,-0.9697,-0.9709,-0.9658,-0.9686,-0.9676,-0.9669,-0.9707,-0.9723,-0.9701,-0.9793,-0.9758,-0.9765,-0.9767,-0.9789,-0.9801,-0.9812,-0.9668,-0.9667,-0.9667,0,0,-0.9802,-0.9794,-0.9823,-0.9818,-0.9809,-0.9791,-0.9799,-0.9782,-0.9773,-0.98,-0.9763,-0.9776,-0.9794,-0.9791,-0.9792,-0.9872,-0.9844,-0.9876,-0.9929,-0.9953,-0.9963,-0.9972,-1.0002,-1.0013,-0.9882,-0.9882,-0.9882,0,-0.9853,-0.9874,-0.9842,-0.9863,-0.9865,-0.982,-0.985,-0.9847,-0.9842,-0.9845,-0.982,-0.9843,-0.9835,-0.9872,-0.9892,-0.9893,-0.9901,-0.9877,-0.9964,-0.9973,-0.9981,-1.0009,-1.002,-0.9886,-0.9885,-0.9885,-0.9885,0,-0.9937,-0.9953,-0.9978,-0.9974,-0.9979,-1.0005,-0.9977,-0.9986,-0.9964,-0.9949,-0.9977,-0.9966,-0.9971,-0.9978,-0.9957,-1.0013,-1.0,-0.997,-0.9927,-0.9998,-1.0024,-1.0034,-0.9892,-0.989,-0.9889,-0.9888,0,0,-1.0059,-1.0037,-1.0047,-1.0045,-1.0032,-1.0044,-1.0068,-1.0073,-1.0082,-1.008,-1.01,-1.0117,-1.009,-1.0091,-1.0069,-1.009,-1.0156,-1.0058,-1.0057,-1.0078,-1.0218,-1.0241,-1.0254,-1.0136,-1.0138,-1.014,-1.0219,0,-1.0136,-1.0176,-1.0148,-1.0192,-1.0207,-1.0164,-1.0185,-1.0181,-1.0167,-1.0178,-1.0163,-1.0176,-1.0139,-1.0139,-1.0158,-1.0144,-1.0184,-1.0137,-1.0156,-1.0157,-1.016,-1.0267,-1.0291,-1.0367,-1.0229,-1.0231,-1.0232,0,-1.0232,-1.0234,-1.028,-1.0265,-1.0271,-1.029,-1.0293,-1.0303,-1.0297,-1.0286,-1.0288,-1.026,-1.0284,-1.0241,-1.0274,-1.0243,-1.0249,-1.0243,-1.0245,-1.0246,-1.0199,-1.0273,-1.039,-1.0402,-1.0247,-1.0246,-1.0245,0,-1.0317,-1.0332,-1.0362,-1.0361,-1.0344,-1.0359,-1.0353,-1.0345,-1.035,-1.0352,-1.0355,-1.0361,-1.0364,-1.037,-1.0345,-1.0316,-1.0381,-1.0336,-1.0373,-1.0374,-1.039,-1.0389,-1.0511,-1.0392,-1.0392,-1.0392,-1.0391,0,-1.0407,-1.0437,-1.04,-1.0418,-1.0451,-1.0419,-1.0453,-1.0442,-1.0435,-1.0451,-1.0414,-1.0431,-1.0396,-1.0409,-1.039,-1.0421,-1.0422,-1.0414,-1.0409,-1.0418,-1.042,-1.0422,-1.0417,-1.0395,-1.0394,-1.0393,-1.0393,0,-1.0509,-1.0485,-1.0514,-1.0496,-1.0492,-1.0517,-1.0502,-1.0519,-1.0503,-1.0524,-1.0527,-1.0502,-1.0516,-1.0491,-1.0502,-1.0489,-1.0532,-1.0518,-1.0534,-1.053,-1.057,-1.0567,-1.0698,-1.0714,-1.0584,-1.0586,-1.0587,0,-1.0568,-1.059,-1.0574,-1.0582,-1.0578,-1.0592,-1.0597,-1.0566,-1.0573,-1.0568,-1.0586,-1.0596,-1.0603,-1.0626,-1.061,-1.0618,-1.0604,-1.065,-1.0605,-1.0614,-1.0606,-1.0606,-1.0609,-1.066,-1.0661,-1.0662,-1.0663,0,-1.0676,-1.0663,-1.0672,-1.0677,-1.0684,-1.0686,-1.0686,-1.0694,-1.0662,-1.0672,-1.0685,-1.069,-1.0701,-1.0712,-1.0716,-1.071,-1.0682,-1.0677,-1.0687,-1.0697,-1.0706,-1.0703,-1.056,-1.0675,-1.0674,-1.0673,-1.0672,-1.0672,-1.0759,-1.0777,-1.0769,-1.078,-1.0777,-1.0777,-1.0792,-1.0779,-1.0789,-1.0795,-1.0776,-1.0794,-1.0788,-1.0791,-1.0788,-1.0802,-1.0782,-1.0795,-1.0799,-1.0803,-1.081,-1.0703,-1.0803,-1.0802,-1.0802,-1.0802,-1.0802,0,-1.0866,-1.0859,-1.0869,-1.087,-1.0879,-1.0851,-1.0849,-1.0859,-1.0875,-1.0872,-1.0879,-1.0895,-1.0906,-1.089,-1.0899,-1.0913,-1.0901,-1.0916,-1.0916,-1.0915,-1.0827,-1.0818,-1.0927,-1.0927,-1.0927,-1.0927,-1.0927,-1.0927,-1.0923,-1.0953,-1.0939,-1.0967,-1.0959,-1.0977,-1.0978,-1.0979,-1.0977,-1.0996,-1.1004,-1.0994,-1.0986,-1.0994,-1.1003,-1.0998,-1.1004,-1.1024,-1.1015,-1.0933,-1.0921,-1.0909,-1.0901,-1.1026,-1.1026,-1.1103,-1.1103,-1.1104]},{"header":{"parameterUnit":"m.s-1","parameterCategory":1,"la1":30.2991,"la2":30.254,"lo1":-89.0895,"lo2":-89.0444,"dy":0.0017,"dx":0.0017,"nx":28,"ny":28,"refTime":"2024-11-23T09:00:00:Z","depth":0,"parameterNumber":3,"parameterNumberName":"V-component_of_WINDS"},"data":[0,0,0,0,0,0,0,0,0,0,0,0,0,0,0,0,0,0,0,0,0,0,0,0,0,0,0,0,0,0,0,0,0,0,0,0,0,0,0,0,0,0,0,0,0,0,0,0,0,0,0,0,0,0,0,0,0,0,-0.2514,-0.2515,0,-0.2568,-0.2568,-0.2569,-0.2573,-0.2572,-0.2571,-0.2571,-0.2626,-0.2628,-0.263,0,0,0,0,0,0,0,0,0,0,0,0,0,-0.2415,-0.2417,-0.2514,-0.2515,-0.2516,-0.2567,-0.2568,-0.2569,-0.2573,-0.2572,-0.2571,-0.2571,-0.2625,-0.2627,-0.263,0,0,0,0,0,0,0,0,0,0,0,0,0,-0.2462,-0.2418,-0.2514,-0.2524,-0.2525,-0.2567,-0.2568,-0.2569,-0.2573,-0.2572,-0.2571,-0.257,-0.2624,-0.2627,-0.263,-0.2667,0,0,-0.2639,-0.2641,0,0,0,0,0,0,0,0,-0.246,-0.2466,-0.2522,-0.2523,-0.2525,-0.2562,-0.2553,-0.2602,-0.2573,-0.2555,-0.2571,-0.257,-0.2605,-0.261,-0.2622,-0.2669,-0.2672,-0.264,-0.2642,-0.2643,-0.2644,0,0,0,0,0,0,0,-0.2456,-0.2464,-0.2535,-0.2522,-0.2524,-0.2525,-0.2531,-0.2563,-0.2584,-0.2556,-0.2557,-0.2563,-0.2606,-0.2619,-0.2623,-0.2672,-0.264,-0.2642,-0.2644,-0.2645,-0.2752,-0.2753,0,0,0,0,0,0,-0.2451,-0.2461,-0.2534,-0.2537,-0.2489,-0.2528,-0.2534,-0.2551,-0.2584,-0.2588,-0.2564,-0.2563,-0.2614,-0.262,-0.2625,-0.2671,-0.2643,-0.2646,-0.2647,-0.2751,-0.2752,-0.2754,0,0,0,0,0,0,-0.2449,-0.2458,-0.2531,-0.2499,-0.2508,-0.253,-0.255,-0.2553,-0.2566,-0.259,-0.2593,-0.2573,-0.2614,-0.2621,-0.2656,-0.2672,-0.2647,-0.265,-0.275,-0.2752,-0.2753,-0.2761,0,0,0,0,0,0,-0.2446,-0.2457,-0.2471,-0.2499,-0.251,-0.2562,-0.2551,-0.2554,-0.2571,-0.257,-0.2599,-0.2603,-0.2614,-0.2652,-0.2659,-0.2676,-0.2652,-0.2749,-0.2751,-0.2753,-0.276,-0.2763,-0.2765,0,0,0,0,0,-0.2443,-0.2472,-0.2472,-0.2481,-0.2529,-0.2563,-0.2569,-0.258,-0.2572,-0.2587,-0.2602,-0.2602,-0.2669,-0.2655,-0.2664,-0.2682,-0.2748,-0.275,-0.2752,-0.2758,-0.2762,-0.2765,0,0,0,0,0,0,-0.2445,-0.2475,-0.2476,-0.2515,-0.2536,-0.2563,-0.2582,-0.2584,-0.2608,-0.2607,-0.262,-0.2626,-0.2661,-0.2675,-0.2659,-0.2719,-0.2708,-0.2712,-0.2709,-0.2713,-0.2716,-0.2712,-0.2655,0,0,0,0,0,-0.245,-0.2475,-0.25,-0.2532,-0.2543,-0.256,-0.2576,-0.2582,-0.2605,-0.2614,-0.2632,-0.2654,-0.268,-0.2697,-0.2722,-0.2761,-0.2767,-0.2777,-0.278,-0.2782,-0.2786,-0.2808,-0.2813,-0.2761,-0.2761,-0.2761,0,0,-0.2461,-0.248,-0.2496,-0.2533,-0.255,-0.2576,-0.2568,-0.2596,-0.2615,-0.2619,-0.2653,-0.2667,-0.2692,-0.2729,-0.2747,-0.2742,-0.2802,-0.2785,-0.2787,-0.279,-0.2811,-0.2816,-0.282,-0.2763,-0.2762,-0.2762,0,0,-0.2494,-0.2511,-0.2539,-0.2557,-0.2583,-0.2594,-0.2601,-0.2628,-0.2637,-0.2672,-0.2674,-0.2697,-0.2742,-0.276,-0.2775,-0.2813,-0.2815,-0.2821,-0.2837,-0.2858,-0.2862,-0.2866,-0.288,-0.2885,-0.2824,-0.2824,-0.2824,0,-0.2504,-0.2543,-0.2554,-0.2582,-0.2598,-0.2601,-0.263,-0.2646,-0.2679,-0.2691,-0.2684,-0.274,-0.2757,-0.2799,-0.2808,-0.2819,-0.2828,-0.2818,-0.286,-0.2864,-0.2868,-0.2882,-0.2887,-0.2825,-0.2825,-0.2825,-0.2825,0,-0.2555,-0.2582,-0.2602,-0.2633,-0.2652,-0.268,-0.2694,-0.2712,-0.2716,-0.2728,-0.2764,-0.2784,-0.2813,-0.2823,-0.2828,-0.2866,-0.2862,-0.2858,-0.2847,-0.2873,-0.2887,-0.2892,-0.2826,-0.2826,-0.2825,-0.2825,0,0,-0.2593,-0.2629,-0.2636,-0.265,-0.2679,-0.27,-0.2728,-0.2756,-0.2771,-0.2793,-0.2817,-0.2854,-0.285,-0.2867,-0.2874,-0.2892,-0.2922,-0.2886,-0.2887,-0.2893,-0.2965,-0.2969,-0.2975,-0.2922,-0.2923,-0.2924,-0.2963,0,-0.263,-0.268,-0.269,-0.2733,-0.2759,-0.2761,-0.2786,-0.2806,-0.2817,-0.284,-0.2853,-0.2879,-0.2872,-0.2882,-0.29,-0.2915,-0.2937,-0.2912,-0.2946,-0.2947,-0.2941,-0.2982,-0.2986,-0.3022,-0.2969,-0.2969,-0.297,0,-0.268,-0.2703,-0.275,-0.2775,-0.2786,-0.2807,-0.2834,-0.2856,-0.2878,-0.2885,-0.2904,-0.2908,-0.2937,-0.2923,-0.2964,-0.2946,-0.2961,-0.297,-0.2971,-0.2976,-0.2961,-0.2989,-0.3034,-0.304,-0.2978,-0.2978,-0.2977,0,-0.2704,-0.2747,-0.278,-0.2792,-0.2822,-0.2837,-0.285,-0.2872,-0.2888,-0.2911,-0.2922,-0.2948,-0.2962,-0.2982,-0.2993,-0.2982,-0.3033,-0.3021,-0.304,-0.304,-0.3052,-0.3052,-0.3102,-0.3059,-0.3059,-0.3059,-0.3059,0,-0.2746,-0.2774,-0.2792,-0.2812,-0.2844,-0.2854,-0.2885,-0.2898,-0.2917,-0.294,-0.2943,-0.2965,-0.2978,-0.3001,-0.301,-0.3042,-0.3048,-0.3055,-0.3057,-0.3056,-0.3055,-0.3066,-0.3065,-0.306,-0.306,-0.306,-0.306,0,-0.2779,-0.2792,-0.2828,-0.2853,-0.2859,-0.2882,-0.2903,-0.2923,-0.2934,-0.2963,-0.297,-0.2987,-0.3015,-0.3028,-0.3062,-0.3067,-0.3105,-0.3104,-0.3097,-0.3098,-0.3118,-0.3116,-0.3178,-0.3187,-0.3137,-0.3138,-0.3138,0,-0.2805,-0.2827,-0.2854,-0.2869,-0.2883,-0.2908,-0.2924,-0.2935,-0.2952,-0.2978,-0.2995,-0.3023,-0.3046,-0.3089,-0.3105,-0.3131,-0.3132,-0.3152,-0.3136,-0.3134,-0.3134,-0.3133,-0.3135,-0.3155,-0.3156,-0.3156,-0.3156,0,-0.2851,-0.2856,-0.288,-0.2906,-0.2925,-0.2946,-0.2967,-0.2979,-0.2992,-0.3011,-0.304,-0.3057,-0.3091,-0.3119,-0.3146,-0.3159,-0.316,-0.3161,-0.3167,-0.3166,-0.3162,-0.3166,-0.3106,-0.316,-0.316,-0.3159,-0.3159,-0.3159,-0.2882,-0.2902,-0.2924,-0.295,-0.2966,-0.2985,-0.3005,-0.3018,-0.3042,-0.3071,-0.3075,-0.3105,-0.3126,-0.3162,-0.3176,-0.32,-0.3195,-0.3204,-0.3206,-0.3209,-0.321,-0.3157,-0.3204,-0.3204,-0.3204,-0.3204,-0.3204,0,-0.2929,-0.2943,-0.2967,-0.2995,-0.3016,-0.3014,-0.3036,-0.3054,-0.308,-0.31,-0.3122,-0.3154,-0.318,-0.3197,-0.3224,-0.324,-0.3241,-0.3246,-0.3246,-0.3249,-0.3213,-0.3205,-0.3245,-0.3245,-0.3245,-0.3245,-0.3245,-0.3245,-0.2956,-0.2989,-0.2996,-0.3038,-0.3051,-0.3081,-0.3094,-0.3111,-0.3127,-0.3162,-0.3184,-0.3195,-0.3214,-0.3241,-0.3265,-0.327,-0.328,-0.3286,-0.329,-0.3256,-0.3252,-0.3248,-0.3241,-0.3287,-0.3288,-0.3325,-0.3325,-0.3325]}]]